Weather in Tulun

Russia / Irkutsk Oblast     54°33′25″N   100°34′40″E
temp.,
°C
wind,
m/s
gust,
m/s
humid.,
%
clouds,
%
prec.,
mm/h
press.,
hPa
HPBL,
m
26 february, fri
fri2623:00−10nw61388100 2.0 1017982
02:00−13nw2492100 2.0 1020110
05:00−14nnw3996100 0.3 1022522
08:00−17nnw51190100 0.6 1027686
11:00−17n4794100 0.4 1028739
14:00−16nnw2389100 1.7 1028664
17:00−15n1282100 0.3 1028621
20:00−21sse0093100 0.3 103020
27 february, sat
sat2723:00−18nw51095100 0.4 1033799
02:00−23n2293100 0.5 103621
05:00−25ssw1199100 0.1 103819
08:00−25s2297100 0.1 103939
11:00−22s3690100 0.0 1038337
14:00−18sw2375100 0.0 1036744
17:00−18nnw247193 0.0 1036819
20:00−22sse118495 0.0 103820
28 february, sun
sun2823:00−23s1187100 0.0 103920
02:00−22sw1298100 0.0 103920
05:00−23nw1195100 0.0 103920
08:00−23ssw1293100 0.0 104120
11:00−20ssw2290100 0.0 1040243
14:00−16sw1281100 0.1 1040712
17:00−16sse1180100 0.1 1040569
20:00−21e0095100 0.1 104120
1 march, mon
mon123:00−21ese0098100 0.1 104220
02:00−22ssw1199100 0.1 104120
05:00−22ssw1298100 0.0 104020
08:00−26ssw129882 0.0 104020
11:00−20s23870 0.0 1036195
14:00−15sse23821 0.0 1032374
17:00−13se248559 0.0 1030421
20:00−18ese239780 0.0 102953
2 march, tue
tue223:00−18ese2695100 0.0 1027146
02:00−19ese3796100 0.0 1025209
05:00−19se2697100 0.0 1022174
08:00−18se2597100 0.1 1021173
11:00−15sse3495100 0.3 1018226
14:00−10sse3493100 0.4 1015275
17:00−8se3495100 0.4 1013220
20:00−9sse1297100 0.4 101323